Skip Page Navigation
NASA JPL Caltech
NASA Logo - Jet Propulsion Laboratory + View the NASA Portal
+ Near-Earth Object (NEO) Project
Search JPL
JPL Home Earth Solar System Stars & Galaxies Technology
JPL Solar System Dynamics
BODIES ORBITS EPHEMERIDES TOOLS PHYSICAL DATA DISCOVERY FAQ SITE MAP
JPL Small-Body Database Browser
Search: [ help ]  
7002 Bronshten (1971 OV)
Classification: Mars-crossing Asteroid          SPK-ID: 2007002
Ephemeris | Orbit Diagram | Orbital Elements | Physical Parameters | Discovery Circumstances ]

[ show orbit diagram ]
Orbital Elements at Epoch 2455200.5 (2010-Jan-04.0) TDB
Reference: MPO97225 (heliocentric ecliptic J2000)
 Element Value Uncertainty (1-sigma)   Units 
e 0.3337482 n/a  
a 2.3570234 n/a AU
q 1.5703711 n/a AU
i 4.57959 n/a deg
node 193.26728 n/a deg
peri 144.03967 n/a deg
M 210.67540 n/a deg
tp 2455748.7430384
(2011-Jul-06.24303841)
n/a JED
period 1321.7346225
3.62
n/a
n/a
d
yr
n 0.27236935 n/a deg/d
Q 3.1436757 n/a AU
  Orbit Determination Parameters
   # obs. used (total)      362  
   first obs. used      1971-??-??  
   last obs. used      2006-02-21  
   # oppositions      13  
   planetary ephem.      DE403  
   quality code      1  
   fit RMS      0.63  
   data source      MPC:mpn  
   producer      MPC  

Additional Information
 T_jup = 3.472 

Ephemeris | Orbit Diagram | Orbital Elements | Physical Parameters | Discovery Circumstances ]

Physical Parameter Table
Parameter Symbol Value Units Sigma Reference Notes
absolute magnitude H 14.8 mag n/a PDS3 (MPC 28116)  

7002 Bronshten           Discovered 1971 July 26 by N. S. Chernykh at the Crimean Astrophysical Observatory.
Vitalij Aleksandrovich Bronshten (b. 1918) is a Moscow astronomer and specialist in physics and cosmogony of the minor bodies of the solar system. In addition, he contributed extensively to the development of amateur astronomy in the former U.S.S.R.
NOTE: some special characters may not display properly (any characters within {} are an attempt to place the proper accent above a character)
Reference: 20000124/MPCPages.arcLast Updated: 2009-05-11

Alternate Designations
 1971 OV = 1971 QM = 1982 SL4 
Ephemeris | Orbit Diagram | Orbital Elements | Physical Parameters | Discovery Circumstances ]
ABOUT SSD CREDITS/AWARDS PRIVACY/COPYRIGHT GLOSSARY LINKS
FirstGov 2009-Nov-23 20:47 UT
(server date/time)  
NASA Home Page
Site Manager:   Donald K. Yeomans
Webmaster  Alan B. Chamberlin